Погода в Сё-Яхе

Россия / Ямало-Ненецкий автономный округ     70°10′04″N   72°30′39″E
темп.,
°C
ветер,
м/с
пор.,
м/с
влажн.,
%
обл.,
%
осадки,
мм/ч
давл.,
гПа
погр.,
м
22 октября, пт
пт2223:00−2ююз569269 1.1 999325
02:00−3ююз459347 0.0 999202
05:00−2ю5797100 0.0 1000310
08:000ююв7887100 0.1 999784
11:000ююв91092100 0.4 999616
14:00−1юв101194100 0.4 999618
17:00−2юв101290100 1.1 997646
20:00−2юв101193100 0.5 996567
23 октября, сб
сб2323:00−3юв91090100 1.0 994546
02:00−3юв8888100 0.1 993534
05:00−3вюв8889100 0.2 992483
08:00−4вюв8887100 0.1 990480
11:00−4вюв8992100 0.3 990468
14:00−4вюв8992100 0.4 989490
17:00−4вюв9989100 0.6 988533
20:00−4вюв8993100 0.4 988459
24 октября, вс
вс2423:00−4в9994100 1.6 987412
02:00−4в9994100 1.6 986406
05:00−4в9994100 3.4 986423
08:00−4всв6794100 1.6 986402
11:00−3св6693100 2.7 986442
14:00−3с5694100 0.8 988457
17:00−5ссз7893100 1.5 990411
20:00−5сз81092100 0.4 991466
25 октября, пн
пн2523:00−5сз81093100 0.8 992477
02:00−5зсз81192100 0.3 993489
05:00−5зсз71191100 0.4 994512
08:00−5з7109593 0.1 994334
11:00−5з7119245 0.1 995324
14:00−5з8129015 0.0 996361
17:00−5з8128913 0.0 996339
20:00−5зюз8128777 0.0 997318
26 октября, вт
вт2623:00−3зюз10148480 0.1 997579
02:00−5юз10168617 0.1 998451
05:00−6юз101590100 0.1 998418
08:00−6юз8129298 0.0 997303
11:00−6юз81194100 0.1 997345
14:00−5юз6994100 0.4 997330
17:00−6юз559397 0.8 996268
20:00−7зсз229396 0.3 996157